Location: Newark
(30.1000°N, 109.4667°E)
Time: 19:41:55
(UTC+00:00)

Transit 2A Rocket - Visible Passes

Search period start: 28 February 2020 00:00
Search period end: 09 March 2020 00:00
Orbit: 591 x 912 km, 66.7° (Epoch: 27 February)

Date Brightness Start Highest point End Pass type
(mag) Time Alt. Az. Time Alt. Az. Time Alt. Az.
28 Feb 6.2 22:29:42 10° NNW 22:34:59 50° ENE 22:40:40 10° SE visible
29 Feb 7.1 12:59:32 10° SW 12:59:58 13° SW 12:59:58 13° SW visible
29 Feb 7.1 21:47:40 10° N 21:52:21 28° ENE 21:57:18 10° ESE visible
01 Mar 4.8 12:17:04 10° SSW 12:20:22 48° SSE 12:20:22 48° SSE visible
01 Mar 7.8 21:06:12 10° NNE 21:09:35 16° NE 21:13:06 10° E visible
02 Mar 5.4 11:35:15 10° SSE 11:38:52 27° ESE 11:40:55 19° ENE visible
02 Mar 7.1 13:18:18 10° WSW 13:20:58 19° WNW 13:20:58 19° WNW visible
02 Mar 5.4 22:04:25 10° NNW 22:09:55 75° ENE 22:15:49 10° SSE visible
03 Mar 5.9 12:34:41 10° SW 12:38:38 37° WNW 12:41:36 17° N visible
03 Mar 6.4 21:22:10 10° N 21:27:20 41° ENE 21:32:52 10° SE visible
04 Mar 4.5 11:51:49 10° SSW 11:56:05 80° WNW 12:00:28 10° NNE visible
04 Mar 7.3 20:40:17 10° N 20:44:40 24° ENE 20:49:15 10° ESE visible
04 Mar 5.6 22:22:06 10° NW 22:27:18 41° WSW 22:32:49 10° S visible
05 Mar 4.8 11:09:33 10° S 11:13:37 45° ESE 11:17:48 10° NE visible
05 Mar 7.6 12:54:36 10° WNW 12:56:25 12° NW 12:58:15 10° NNW visible
05 Mar 7.9 19:59:09 10° NNE 20:01:51 14° NE 20:04:37 10° E visible
05 Mar 5.1 21:39:18 10° NNW 21:44:50 75° WSW 21:50:45 10° SSE visible
06 Mar 6.8 12:10:08 10° WSW 12:13:36 24° WNW 12:17:11 10° N visible
06 Mar 5.6 20:57:45 15° NNW 21:02:17 61° ENE 21:08:08 10° SE visible
07 Mar 5.6 11:26:49 10° SW 11:30:56 48° WNW 11:35:14 10° NNE visible
07 Mar 6.6 20:18:17 30° NNE 20:19:41 34° ENE 20:24:58 10° SE visible
07 Mar 6.1 21:58:20 14° WNW 22:02:08 28° WSW 22:07:04 10° SSW visible
08 Mar 7.7 19:39:03 17° E 19:39:03 17° E 19:41:06 10° ESE visible
08 Mar 5.3 21:19:06 49° W 21:19:42 51° WSW 21:25:26 10° S visible
